Content
SEND FEEDBACK

Daily
Averages
Monthly
Summary
United States of America

NEW YORK - UPPER EAST SIDE, NEW YORK


Home > North America > United States > New York
Elevation: 132 feet     Latitude: 40 47N     Longitude: 073 58W

WEATHER
 
SELECT A DAY
Number of Records: 152,321;   Date Range: 11/1/95 - 11/27/14
 
SHARE

PRINT THIS DATA

[ ← Previous Day ]
WEATHER ALMANAC - APRIL 30, 2013
[ Next Day → ]
[ °C ]   °F
Weather ElementAverageHighLow
Temperature58.1 °F66.9 °F (12:51 pm)52 °F (3:51 am)
Dewpoint34.2 °F48 °F (3:51 am)19.9 °F (4:51 pm)
Humidity46.8 %86 % (3:51 am)18 % (2:51 pm)
Barometer30.28 in30.34 in (9:51 pm)30.21 in (2:51 am)
Wind Speed5.4 mph10.4 mph (12:51 pm)
Weather ElementAverage
Visibility10 mi
Wind DirectionNE (47.4 °)

Weather ElementTotal
Precipitation---
Heating Degree Days5.6 (Base 65)
Growing Degree Days9.5 (Base 50)
Averaged from 23 records on April 30, 2013
WEATHER CONDITIONS BREAKOUT
WIND DIRECTION BREAKOUT
WEATHER BY HOUR - APRIL 30, 2013
[ °C ]   °F
Local TimeTemperatureDewpointHumidityBarometerVisibilityWind DirectionWind SpeedGust SpeedPrecipitationEventsConditions
1:51 AM53.1 °F46.0 °F77 %30.22 in10.0 miVariable4.6 mphOvercast
2:51 AM53.1 °F46.0 °F77 %30.21 in10.0 miCalmOvercast
3:51 AM52.0 °F48.0 °F86 %30.22 in10.0 miVariable4.6 mphOvercast
4:51 AM52.0 °F46.0 °F80 %30.23 in10.0 miENE (70°)4.6 mphOvercast
5:51 AM52.0 °F45.0 °F77 %30.24 in10.0 miEast (80°)6.9 mphOvercast
6:51 AM52.0 °F44.1 °F74 %30.26 in10.0 miENE (70°)6.9 mphOvercast
7:51 AM53.1 °F43.0 °F69 %30.27 in10.0 miVariable5.8 mphOvercast
8:51 AM55.0 °F44.1 °F67 %30.29 in10.0 miVariable4.6 mphOvercast
9:51 AM57.0 °F45.0 °F64 %30.30 in10.0 miNE (50°)8.1 mphOvercast
10:51 AM61.0 °F45.0 °F56 %30.30 in10.0 miVariable5.8 mphOvercast
11:51 AM64.9 °F42.1 °F43 %30.29 in10.0 miVariable6.9 mphScattered Clouds
12:51 PM66.9 °F41.0 °F39 %30.28 in10.0 miENE (60°)10.4 mphClear
1:51 PM66.9 °F24.1 °F20 %30.28 in10.0 miSouth (170°)9.2 mphClear
2:51 PM66.0 °F21.0 °F18 %30.29 in10.0 miSouth (170°)8.1 mphClear
3:51 PM66.9 °F25.0 °F21 %30.29 in10.0 miNorthClear
4:51 PM64.9 °F19.9 °F18 %30.30 in10.0 miNorthClear
5:51 PM61.0 °F19.9 °F21 %30.31 in10.0 miCalmClear
6:51 PM60.1 °F24.1 °F25 %30.32 in10.0 miCalmClear
7:51 PM60.1 °F24.1 °F25 %30.32 in10.0 miSSE (150°)8.1 mphClear
8:51 PM55.9 °F23.0 °F28 %30.33 in10.0 miSE (140°)4.6 mphClear
9:51 PM55.0 °F21.9 °F28 %30.34 in10.0 miVariable5.8 mphClear
10:51 PM54.0 °F23.0 °F30 %30.33 in10.0 miSE (130°)4.6 mphClear
11:51 PM53.1 °F25.0 °F34 %30.33 in10.0 miVariable3.5 mphClear
Hourly data recorded from KNYC, located miles away from New York - Upper East Side, New York







STORIES FROM OUR PARTNERS